Tracking 19192 objects as of 19-Jun-2018
HD Live streaming from Space Station
objects crossing your sky now

SL-19 R/B

Track SL-19 R/B now!
10-day predictions


NORAD ID: 36589
Int'l Code: 2010-023B
Perigee: 882.0 km
Apogee: 1,215.5 km
Inclination: 100.5 °
Period: 106.0 minutes
Semi major axis: 7419 km
RCS: 6.505 m2 (large)
Launch date: June 2, 2010
Source: Commonwealth of Independent States (former USSR) (CIS)
Launch site: PLESETSK MISSILE AND SPACE COMPLEX (PKMTR)

Note: This is a ROCKET BODY
aabbcc
Your satellite tracking list
Your tracking list is empty




NASA's NSSDC Master Catalog

Two Line Element Set (TLE):
1 36589U 10023B   18169.87999552 -.00000031  00000-0  24454-4 0  9994
2 36589 100.4695 246.4200 0224748 264.0186 209.3113 13.58373768399179
Source of the keplerian elements: AFSPC